Regional Weather Roundup
Issued by NWS

Home | Current Version | Previous Version | Graphics & Text | Print | Product List | Glossary Off
Versions: 1 2 3 4 5 6 7 8 9 10 11 12 13 14 15 16 17 18 19 20 21 22 23 24 25 26 27 28 29 30 31 32 33 34 35 36 37 38 39 40 41 42 43 44 45 46 47 48 49 50

000
ASUS43 KFSD 250602
RWRSD

WEATHER ROUNDUP FOR SOUTH DAKOTA
NATIONAL WEATHER SERVICE SIOUX FALLS SD
100 AM CDT MON JUL 25 2016

NOTE: "FAIR" INDICATES FEW OR NO CLOUDS BELOW 12,000 FEET WITH NO
SIGNIFICANT WEATHER AND/OR OBSTRUCTIONS TO VISIBILITY.


SDZ001>005-009-010-012>017-250700-
NORTHWEST AND NORTH CENTRAL SOUTH DAKOTA

CITY           SKY/WX    TMP DP  RH WIND       PRES   REMARKS
BUFFALO          N/A     72  46  39 S20       29.99F
FAITH            N/A     68  44  42 S14       30.08S
MOBRIDGE       CLEAR     68  58  70 SE6       30.04S
$$

SDZ012>016-024>037-041>051-057-063-072>074-250700-
SOUTHWEST AND SOUTH CENTRAL SOUTH DAKOTA

CITY           SKY/WX    TMP DP  RH WIND       PRES   REMARKS
RAPID CTY ARPT CLEAR     65  51  60 S8        30.12R
PIERRE         CLEAR     66  53  63 SE5       30.06S
CUSTER         CLEAR     63  46  54 VRB3      30.27S
ELLSWORTH AFB  CLEAR     68  52  55 SW5       30.10S
PHILIP         CLEAR     70  54  56 E5        30.08R
PINE RIDGE     CLEAR     72  55  55 S17       30.14S
WINNER         FAIR      73  55  53 S13       30.11F
$$

SDZ004>011-016>023-039-040-250700-
NORTHEAST SOUTH DAKOTA

CITY           SKY/WX    TMP DP  RH WIND       PRES   REMARKS
ABERDEEN       CLEAR     61  57  87 CALM      30.05S
WATERTOWN      CLEAR     65  60  84 W3        30.08R
BROOKINGS      CLEAR     65  62  90 SW6       30.09R
SISSETON         N/A     65  59  81 W5        30.02S
$$

SDZ017-020-022-023-036>040-048>070-250700-
SOUTHEAST SOUTH DAKOTA

CITY           SKY/WX    TMP DP  RH WIND       PRES   REMARKS
SIOUX FALLS    CLEAR     67  61  81 W3        30.09R
HURON          CLEAR     68  58  70 SW5       30.07R
CHAMBERLAIN    CLEAR     67  59  76 CALM      30.09S
MITCHELL       CLEAR     70  59  68 S8        30.09S
YANKTON        CLEAR     66  61  82 SW5       30.08S
$$

ABBREVIATIONS USED IN REMARKS
   TC - TEMPERATURE IN CELSIUS
  WCI - WIND CHILL INDEX
   HX - HEAT INDEX
  VSB - VISIBILITY





USA.gov is the U.S. government's official web portal to all federal, state and local government web resources and services.